Regional Weather Roundup
Issued by NWS

Home | Current Version | Previous Version | Graphics & Text | Print | Product List | Glossary On
Versions: 1 2 3 4 5 6 7 8 9 10 11 12 13 14 15 16 17 18 19 20 21 22 23 24 25 26 27 28 29 30 31 32 33 34 35 36 37 38 39 40 41 42 43 44 45 46 47 48 49 50
000
ASUS45 KABQ 221601
RWRNM
NEW MEXICO REGIONAL WEATHER ROUNDUP
NATIONAL WEATHER SERVICE ALBUQUERQUE NM
1000 AM MDT SUN OCT 22 2017

NOTE: "FAIR" MEANS FEW OR NO CLOUDS BELOW 12,000 FEET AGL WITH NO
       SIGNIFICANT WEATHER OR OBSTRUCTIONS TO VISION.

      THIS PRODUCT IS RELEASED AS TWO VERSIONS.  ONE VERSION NEAR
      THE TOP OF THE HOUR CONTAINING PRELIMINARY DATA FROM ALBUQUERQUE
      AND OTHER STATIONS.  A FINAL VERSION WITH ADDITIONAL DATA IS
      ISSUED ABOUT 10 MINUTES AFTER THE HOUR.

NMZ501-503-504-510>518-221700-
NORTHWEST PLATEAU/NORTHCENTRAL MOUNTAINS

CITY           SKY/WX    TMP DP  RH WIND       PRES   REMARKS
FARMINGTON     FAIR      43  32  65 E6        30.44R
LOS ALAMOS     FAIR      43   8  23 NE5       30.43S
SANTA FE       FAIR      48   9  20 N12       30.40R
TAOS           FAIR      42   9  25 N7        30.46R
ANGEL FIRE     FAIR      44  10  24 SW10      30.42S

$$
NMZ402-403-502-505>509-221700-
WESTCENTRAL MOUNTAINS/SOUTHWEST MOUNTAINS

CITY           SKY/WX    TMP DP  RH WIND       PRES   REMARKS
GALLUP         FAIR      44   9  23 CALM      30.47S
GRANTS         FAIR      43  11  27 NW8       30.48R
SILVER CITY    FAIR      61  13  15 CALM      30.40R

$$
NMZ407-409-411-412-221700-
SOUTHERN DESERTS

CITY           SKY/WX    TMP DP  RH WIND       PRES   REMARKS
DEMING         FAIR      60  23  24 N5        30.37R
LAS CRUCES     FAIR      61  15  16 SW3       30.37R
HOLLOMAN AFB   FAIR      61  22  22 NW9       30.37R HAZE
ALAMOGORDO     FAIR      61  18  18 NW5       30.36R
T OR C         FAIR      57  16  20 CALM      30.39R

$$
NMZ519>523-221700-
CENTRAL VALLEYS/CENTRAL HIGHLANDS

CITY           SKY/WX    TMP DP  RH WIND       PRES   REMARKS
ALBUQUERQUE    FAIR      51   5  15 CALM      30.43R
DOUBLE EAGLE   SUNNY     50   9  18 CALM      30.44R
MORIARTY ARPT  FAIR      54  11  18 NW8       30.41R
CLINES CORNERS NOT AVBL
BELEN          FAIR      53   6  15 CALM      30.43S
SOCORRO        FAIR      54  12  18 NE9       30.40S

$$
NMZ524>526-539-540-221700-
SOUTHCENTRAL MOUNTAINS

CITY           SKY/WX    TMP DP  RH WIND       PRES   REMARKS
RUIDOSO        FAIR      55   9  15 W7        30.43S

$$
NMZ527>531-221700-
NORTHEAST HIGHLANDS/NORTHEAST PLAINS

CITY           SKY/WX    TMP DP  RH WIND       PRES   REMARKS
LAS VEGAS      FAIR      48  19  31 S7        30.37R
RATON          FAIR      44  25  47 SE7       30.35R
CLAYTON        FAIR      52  15  23 S14       30.31F

$$
NMZ532>537-221700-
EASTCENTRAL PLAINS

CITY           SKY/WX    TMP DP  RH WIND       PRES   REMARKS
SANTA ROSA     FAIR      48  20  33 SW5       30.32F
TUCUMCARI      FAIR      53  33  46 CALM      30.31F
CANNON AFB     FAIR      55  29  36 SW7       30.35S
CLOVIS AIRPORT FAIR      57  30  35 S8        30.35R

$$
NMZ028-029-538-221700-
SOUTHEAST PLAINS

CITY           SKY/WX    TMP DP  RH WIND       PRES   REMARKS
ROSWELL        FAIR      55  33  43 CALM      30.35S
ARTESIA        FAIR      55  32  41 CALM      30.37S
CARLSBAD       FAIR      60  34  37 CALM      30.35S
HOBBS          SUNNY     59  30  33 E5        30.35S


$$




USA.gov is the U.S. government's official web portal to all federal, state and local government web resources and services.